Location: Ida Center
(41.8662°N, 83.5713°W)
Time: 16:24:04
(UTC+00:00)

BREEZE-M DEB (TANK) - Pass Details

Date: 17 November 2019
Orbit: 664 x 22265 km, 51.1° (Epoch: 07 December)

Event Time Altitude Azimuth Distance (km) Brightness Sun altitude
Rises 22:17:05 0° 302° (WNW) 3,096 6.7 -1.7°
Reaches altitude 10° 22:18:42 10° 301° (WNW) 2,349 6.1 -2.0°
Maximum altitude 22:23:17 79° 215° (SW) 1,261 4.3 -2.7°
Drops below altitude 10° 22:38:20 10° 132° (SE) 7,174 7.7 -5.3°
Sets 22:48:53 0° 132° (SE) 10,937 8.6 -7.2°
